Home > Weather > San Cristóbal > Past weeks

Flag for Venezuela Past Weather in San Cristóbal, Venezuela — Yesterday and Last 2 Weeks

Now
84 °F

Passing clouds.


Feels Like: 90 °F
Forecast: 68 / 85 °F
Wind: 6 mph from North

Location: San Antonio Del Tachira Airport

Current Time: May 28, 2016 at 10:08:45 PM

Latest Report: May 28, 2016 at 9:00 PM


Visibility: N/A

Pressure: 29.95 "Hg (27.07 "Hg at 893m altitude)

Humidity: 66%

Dew Point: 72 °F

Location of San CristóbalLocation

Past Weather in San Cristóbal — Graph

°F

San Cristóbal Temperature Yesterday

Maximum temperature yesterday: 93 °F (at 3:00 PM)
Minimum temperature yesterday: 77 °F (at 8:00 AM)
Average temperature yesterday: 85 °F

High & Low Weather Summary for the Past Weeks

 TemperatureHumidityPressure
High95 °F (May 15, 2:00 PM)94% (May 27, 2:00 AM)30.01 "Hg (May 27, 2:00 AM)
Low77 °F (May 16, 8:00 AM)36% (May 14, 5:00 PM)29.83 "Hg (May 23, 4:00 PM)
Average87 °F52%29.92 "Hg
* Reported May 13 7:00 PM — May 28 7:00 PM, San Cristóbal, Weather by CustomWeather, © 2016

Note: Actual official high and low records may vary slightly from our data, if they occured in-between our weather recording intervals... More about our weather records

Advertising

San Cristóbal Weather History for the Previous 24 Hours

Scroll right to see more
 ConditionsComfort  
Time TempWeatherWind HumidityBarometerVisibility
7:00 PM
Sat, May 28
84 °FPassing clouds.No wind70%29.92 "HgN/A
6:00 PM88 °FPartly sunny.6 mph52%29.92 "HgN/A
5:00 PM91 °FPartly sunny.6 mph36%29.89 "HgN/A
4:00 PM90 °FPartly sunny.13 mph38%29.89 "HgN/A
3:00 PM90 °FPartly sunny.8 mph38%29.92 "HgN/A
2:00 PM93 °FPartly sunny.6 mph36%29.92 "HgN/A
1:00 PM91 °FPartly sunny.9 mph38%29.92 "HgN/A
12:00 PM91 °FPartly sunny.5 mph38%29.92 "Hg9 mi
11:00 AM91 °FScattered clouds.10 mph36%29.95 "HgN/A
10:00 AM90 °FScattered clouds.6 mph38%29.95 "HgN/A
9:00 AM86 °FPartly sunny.6 mph43%30.01 "HgN/A
7:00 AM81 °FPartly sunny.9 mph48%29.92 "HgN/A
6:00 AM81 °FPartly sunny.10 mph51%29.92 "HgN/A
5:00 AM81 °FPassing clouds.10 mph51%29.92 "HgN/A
2:00 AM81 °FPassing clouds.13 mph51%29.92 "HgN/A
11:00 PM
Fri, May 27
82 °FPassing clouds.5 mph48%29.92 "HgN/A
10:00 PM82 °FPassing clouds.7 mph58%29.92 "HgN/A
Weather by CustomWeather, © 2016

See weather overviewHow to use our weather pages